Flag for U.S.A. Weather past 2 weeks in Aliso Viejo, California, U.S.A.

70 °F

Partly sunny.

Feels Like: 77 °F
Forecast: 60 / 73 °F
Wind: 8 mph from Southwest

Location: John Wayne Airport-Orange County Airport

Current Time: Oct 4, 2015 at 6:44:38 PM

Latest Report: Oct 4, 2015 at 5:53 PM

Visibility: 10 mi

Pressure: 29.65 "Hg

Humidity: 55%

Dew point: 53 °F

Location of Aliso ViejoLocation

Historic Weather in Aliso Viejo — Graph


Aliso Viejo temperature yesterday

Maximum temperature yesterday: 79 °F (at 2:53 PM)
Minimum temperature yesterday: 65 °F (at 4:53 AM)
Average temperature yesterday: 71 °F

Past Weeks' High & Low Weather Summary

High96 °F (Sep 20, 1:53 PM)100% (Sep 26, 4:01 AM)29.93 "Hg (Sep 26, 4:01 AM)
Low62 °F (Oct 4, 7:53 AM)32% (Sep 20, 3:53 PM)29.55 "Hg (Oct 3, 6:53 PM)
Average74 °F73%29.81 "Hg
* Reported Sep 19 4:53 PM — Oct 4 4:53 PM, Aliso Viejo, Weather by CustomWeather, © 2015

Note: Actual official high and low records may vary slightly from our data, if they occured in-between our weather recording intervals... More about our weather records


Aliso Viejo weather history for previous 24 hours

Time TempWeatherWind HumidityBarometerVisibility
4:53 PM
Sun, Oct 4
71 °FPartly sunny.7 mph51%29.65 "Hg10 mi
3:53 PM73 °FOvercast.7 mph51%29.65 "Hg10 mi
2:53 PM71 °FBroken clouds.8 mph53%29.64 "Hg10 mi
1:53 PM71 °FBroken clouds.8 mph55%29.65 "Hg10 mi
12:53 PM69 °FBroken clouds.6 mph55%29.66 "Hg10 mi
11:53 AM70 °FBroken clouds.6 mph57%29.66 "Hg10 mi
10:53 AM67 °FPartly sunny.6 mph79%29.65 "Hg10 mi
9:53 AM65 °FBroken clouds.6 mph85%29.66 "Hg7 mi
8:53 AM63 °FFog.No wind90%29.65 "Hg6 mi
7:53 AM62 °FMostly cloudy.5 mph90%29.63 "Hg10 mi
6:53 AM64 °FMostly cloudy.9 mph84%29.61 "Hg8 mi
5:53 AM67 °FMostly cloudy.8 mph76%29.59 "Hg10 mi
4:53 AM67 °FOvercast.14 mph85%29.58 "Hg10 mi
3:53 AM69 °FOvercast.12 mph79%29.59 "Hg10 mi
2:53 AM69 °FMostly cloudy.7 mph79%29.59 "Hg10 mi
1:53 AM71 °FOvercast.12 mph66%29.59 "Hg10 mi
12:53 AM70 °FOvercast.7 mph68%29.59 "Hg10 mi
11:53 PM
Sat, Oct 3
71 °FOvercast.12 mph66%29.59 "Hg10 mi
10:53 PM70 °FPassing clouds.7 mph73%29.59 "Hg9 mi
9:53 PM69 °FPassing clouds.7 mph76%29.59 "Hg9 mi
8:53 PM70 °FPassing clouds.9 mph76%29.58 "Hg9 mi
7:53 PM70 °FPassing clouds.8 mph79%29.57 "Hg9 mi
6:53 PM71 °FScattered clouds.10 mph76%29.55 "Hg10 mi
Weather by CustomWeather, © 2015

See weather overviewHow to use our weather pages